Simultaneous Nadir Overpasses (SNOs) Predictions

Prediction of SNOs between NOAA-19 and TERRA Satellite Orbit:

Table of predicted SNOs for the next 14.0 days since TLE Epoch: 9/27/2013
Index Date (NOAA-19) Time (NOAA-19) Lat,Lon (NOAA-19) SZA (NOAA-19 ) Date (TERRA) Time (TERRA) Lat,Lon (TERRA) SZA (TERRA ) Distance(km) Time Diff (sec)
1 09/27/2013 16:01:06 69.79, -59.99 71.57 09/27/2013 16:01:21 69.78, -59.95 71.56 1.80 15
2 09/27/2013 16:51:59 -69.65, 107.49 108.55 09/27/2013 16:50:51 -69.67, 107.53 108.55 2.24 68
3 09/29/2013 20:45:19 69.75,-130.97 72.39 09/29/2013 20:45:37 69.76,-131.04 72.40 3.10 18
4 09/29/2013 21:36:13 -69.65, 36.45 107.70 09/29/2013 21:35:07 -69.65, 36.44 107.70 0.44 66
5 10/02/2013 01:29:32 69.77, 157.95 73.27 10/02/2013 01:29:51 69.79, 157.93 73.29 2.01 19
6 10/02/2013 02:20:26 -69.66, -34.60 106.84 10/02/2013 02:19:21 -69.68, -34.59 106.82 2.93 65
7 10/04/2013 06:13:46 69.81, 86.86 74.16 10/04/2013 06:14:06 69.81, 86.89 74.16 0.99 20
8 10/04/2013 07:04:40 -69.67,-105.66 105.97 10/04/2013 07:03:37 -69.65,-105.70 106.00 2.66 63
9 10/06/2013 10:57:59 69.80, 15.84 75.00 10/06/2013 10:58:21 69.82, 15.84 75.02 2.10 22
10 10/06/2013 11:48:54 -69.69,-176.74 105.10 10/06/2013 11:47:52 -69.66,-176.75 105.14 3.13 62
11 10/08/2013 15:42:12 69.80, -55.21 75.84 10/08/2013 15:42:36 69.82, -55.23 75.86 2.21 24
12 10/08/2013 16:33:07 -69.67, 112.26 104.28 10/08/2013 16:32:07 -69.67, 112.19 104.29 2.53 60
13 10/10/2013 20:26:25 69.82,-126.26 76.69 10/10/2013 20:26:51 69.82,-126.30 76.69 1.38 26
14 10/10/2013 21:17:21 -69.70, 41.16 103.41 10/10/2013 21:16:21 -69.72, 41.20 103.40 2.11 60




NCC Satellite Simultaneous Nadir Overpasses (SNOs) Prediction Service
